This demonstration page uses our WeatherBlox Daily Observations layout. Learn more.

Left ArrowRight Arrow

39.08367, -84.50855

Hourly Observations for December 22, 2015

Temp ( °F °C ) Dew Point ( °F °C ) Humidity (%) Winds ( mph kmh ) Pressure ( in mb ) Visibility ( mi km ) Precip ( " mm )
12:53 am 00:53 Cloudy with Heavy Rain 56 13.3 56 13.3 100 100 S 7 11 29.83 1010 2 3 0.08 2.03
1:05 am 01:05 Cloudy with Light Rain 55 12.8 55 12.8 100 100 SSW 5 7 29.83 1010 5 8 0.01 0.25
1:39 am 01:39 Cloudy with Heavy Rain 55 12.8 55 12.8 100 100 S 6 9 29.80 1009 2 3 0.14 3.56
1:53 am 01:53 Cloudy with Light Rain 56 13.3 56 13.3 100 100 S 8 13 29.80 1009 3 4 0.20 5.08
2:00 am 02:00 Cloudy with Light Rain 55 13 55 13 100 100 SSW 6 9 29.80 1009 7 11 0.00 0.00
2:33 am 02:33 Cloudy with Heavy Rain 57 13.9 57 13.9 100 100 S 10 17 29.80 1009 3 4 0.06 1.52
2:40 am 02:40 Cloudy with Light Rain 57 14 57 14 100 100 SSW 10 17 29.80 1009 5 8 0.00 0.00
2:53 am 02:53 Cloudy with Light Rain 60 15.6 57 13.9 90 90 SSW 12 19 29.78 1009 8 13 0.08 2.03
3:53 am 03:53 Cloudy with Light Rain 57 13.9 57 13.9 100 100 SSW 8 13 29.78 1008 6 10 0.03 0.76
4:01 am 04:01 Cloudy with Light Rain 57 13.9 57 13.9 100 100 SSW 8 13 29.77 1008 6 10 0.01 0.25
4:44 am 04:44 Cloudy with Nearby Thunderstorms 57 13.9 57 13.9 100 100 S 10 17 29.77 1008 10 16 0.01 0.25
4:53 am 04:53 Mostly Cloudy with Light Rain 57 13.9 57 13.9 100 100 S 14 22 29.77 1008 9 14 0.01 0.25
5:07 am 05:07 Cloudy 58 14.4 57 13.9 97 97 SSW 13 20 29.77 1008 10 16 0.00 0.03
5:53 am 05:53 Cloudy with Light Rain 58 14.4 57 13.9 97 97 SSW 10 17 29.80 1009 10 16 0.01 0.25
6:36 am 06:36 Cloudy with Rain 58 14.4 57 13.9 97 97 NW 9 15 29.80 1009 5 8 0.02 0.51
6:53 am 06:53 Cloudy with Light Rain 57 13.9 55 12.8 93 93 WNW 6 9 29.82 1010 10 16 0.02 0.51
7:48 am 07:48 Mostly Clear with Mist and Fog 52 11 52 11 100 100 Calm 29.85 1011 2 3 0.00 0.00
7:53 am 07:53 Mostly Cloudy with Patchy Fog 52 11.1 52 11.1 100 100 Calm 29.84 1011 10 16 0.00 0.03
8:53 am 08:53 Cloudy 55 12.8 52 11.1 90 90 WNW 7 11 29.88 1012 10 16 0.00 0.00
9:29 am 09:29 Cloudy 55 12.8 52 11.1 90 90 WNW 6 9 29.94 1014 10 16 0.00 0.00
9:53 am 09:53 Mostly Cloudy 55 12.8 51 10.6 87 87 WNW 5 7 29.92 1013 10 16 0.00 0.00
10:53 am 10:53 Partly Cloudy 56 13.3 51 10.6 84 84 VRB 5 7 29.92 1013 10 16 0.00 0.00
11:18 am 11:18 Mostly Cloudy 59 15 54 12 82 82 VRB 6 9 29.91 1013 10 16 0.00 0.00
11:53 am 11:53 Mostly Cloudy 57 13.9 50 10 78 78 VRB 6 9 29.91 1013 10 16 0.00 0.00
12:53 pm 12:53 Mostly Cloudy 58 14.4 51 10.6 78 78 WSW 7 11 29.90 1013 10 16 0.00 0.00
1:53 pm 13:53 Mostly Sunny 61 16.1 50 10 67 67 VRB 5 7 29.88 1012 10 16 0.00 0.00
2:53 pm 14:53 Partly Cloudy 61 16.1 50 10 67 67 S 8 13 29.88 1012 10 16 0.00 0.00
3:53 pm 15:53 Mostly Sunny 60 15.6 50 10 70 70 S 8 13 29.88 1012 10 16 0.00 0.00
4:53 pm 16:53 Sunny 57 13.9 49 9.4 74 74 S 7 11 29.88 1012 10 16 0.00 0.00
5:53 pm 17:53 Clear 52 11.1 48 8.9 86 86 Calm 29.89 1012 10 16 0.00 0.00
6:53 pm 18:53 Clear 47 8.3 47 8.3 100 100 Calm 29.90 1013 10 16 0.00 0.00
7:53 pm 19:53 Clear 46 7.8 46 7.8 100 100 Calm 29.89 1012 10 16 0.00 0.00
8:53 pm 20:53 Mostly Clear 45 7.2 45 7.2 100 100 Calm 29.90 1013 10 16 0.00 0.00
9:53 pm 21:53 Clear 44 6.7 44 6.7 100 100 Calm 29.88 1012 10 16 0.00 0.00
10:53 pm 22:53 Clear 46 7.8 46 7.8 100 100 Calm 29.87 1011 10 16 0.00 0.00
11:53 pm 23:53 Cloudy 48 8.9 48 8.9 100 100 Calm 29.85 1011 9 14 0.00 0.00

Powered by AerisWeather